Location: Melbourne
(37.8170°S, 144.9670°E)
Time: 22:07:04
(UTC+10:00)

ADEOS Rocket - Visible Passes

Search period start: 27 September 2016 00:00
Search period end: 07 October 2016 01:00
Orbit: 860 x 1306 km, 98.7° (Epoch: 25 September)

Date Brightness Start Highest point End Pass type
(mag) Time Alt. Az. Time Alt. Az. Time Alt. Az.
27 Sep 5.4 02:01:26 12° E 02:03:14 14° ESE 02:06:04 10° SSE visible
27 Sep 2.6 03:48:22 70° W 03:48:22 70° W 03:53:43 10° SSW visible
28 Sep 3.8 02:58:33 41° E 02:59:17 43° ESE 03:04:30 10° S visible
28 Sep 3.9 04:45:29 21° W 04:45:29 21° W 04:49:13 10° SW visible
29 Sep 5.2 02:08:43 14° E 02:10:44 17° ESE 02:14:10 10° SSE visible
29 Sep 2.7 03:55:39 59° WNW 03:55:47 59° WNW 04:01:17 10° SSW visible
30 Sep 3.4 03:05:50 45° ENE 03:06:51 51° ESE 03:12:13 10° S visible
30 Sep 4.1 04:52:46 18° W 04:52:46 18° W 04:56:25 10° SW visible
01 Oct 5.0 02:16:01 16° E 02:18:16 20° ESE 02:22:10 10° SSE visible
01 Oct 2.9 04:02:57 48° WNW 04:03:25 49° W 04:08:48 10° SSW visible
02 Oct 3.1 04:13:07 48° NE 04:14:26 61° ESE 04:19:55 10° S visible
02 Oct 4.2 06:00:04 15° W 06:00:25 15° W 06:03:27 10° WSW visible
03 Oct 4.8 03:23:18 17° E 03:25:47 23° ESE 03:30:05 10° SSE visible
03 Oct 3.1 05:10:14 39° WNW 05:11:04 41° W 05:16:18 10° SSW visible
04 Oct 2.9 04:20:25 47° NE 04:22:01 73° ESE 04:27:35 10° S visible
04 Oct 4.4 06:07:22 12° W 06:08:10 12° W 06:10:10 10° WSW visible
05 Oct 4.6 03:30:36 19° ENE 03:33:19 27° ESE 03:37:58 10° S visible
05 Oct 3.3 05:17:33 31° WNW 05:18:43 34° W 05:23:46 10° SSW visible
06 Oct 5.7 02:44:13 10° ESE 02:45:01 10° ESE 02:45:48 10° SE visible
06 Oct 2.7 04:27:43 44° NNE 04:29:37 86° ESE 04:35:15 10° SSW visible
